Location: Elm Mott Branch
(32.1549°N, 97.5139°W)
Time: 10:27:20
(UTC+00:00)

Lacrosse 5 rocket - Pass Details

Date: 18 November 2025
Orbit: 406 x 493 km, 57.0° (Epoch: 07 December)

Event Time Altitude Azimuth Distance (km) Brightness Sun altitude
Exits shadow 12:00:47 - 349° (NNW) 2,002 3.9 -13.1°
Reaches altitude 10° 12:02:39 10° 9° (N) 1,487 3.5 -12.7°
Maximum altitude 12:04:23 13° 41° (NE) 1,284 3.5 -12.4°
Drops below altitude 10° 12:06:06 10° 73° (ENE) 1,470 4.4 -12.0°
Sets 12:08:59 0° 101° (ESE) 2,319 6.7 -11.4°
